Regional Weather Roundup
Issued by NWS

Home | Current Version | Previous Version | Text Only | Print | Product List | Glossary Off
Versions: 1 2 3 4 5 6 7 8 9 10 11 12 13 14 15 16 17 18 19 20 21 22 23 24 25 26 27 28 29 30 31 32 33 34 35 36 37 38 39 40 41 42 43 44 45 46 47 48 49 50

000
ASUS43 KBIS 011110
RWRND

NORTH DAKOTA REGIONAL WEATHER ROUNDUP
NATIONAL WEATHER SERVICE BISMARCK ND
600 AM CDT FRI AUG 01 2014

NOTE: "FAIR" INDICATES FEW OR NO CLOUDS BELOW 12,000 FEET WITH NO
SIGNIFICANT WEATHER AND/OR OBSTRUCTIONS TO VISIBILITY.


NDZ001>003-009>011-017-011200-
NORTHWEST NORTH DAKOTA

CITY           SKY/WX    TMP DP  RH WIND       PRES   REMARKS
WILLISTON      PTCLDY    66  57  72 VRB3      30.03F
MINOT          CLEAR     56  54  93 CALM      30.06S
MINOT AFB      CLEAR     55  54  99 NE3       30.06S
$$

NDZ018>021-031>035-040>046-011200-
SOUTHWEST NORTH DAKOTA

CITY           SKY/WX    TMP DP  RH WIND       PRES   REMARKS
BISMARCK       CLEAR     58  55  90 NE7       30.07S
DICKINSON      CLEAR     57  53  86 S8        30.03F
GARRISON         N/A     57  54  89 NE3       30.06F
HETTINGER ARPT CLEAR     54  51  90 CALM      30.07F
$$

NDZ004>008-012>016-024-026-027-054-011200-
NORTHEAST NORTH DAKOTA

CITY           SKY/WX    TMP DP  RH WIND       PRES   REMARKS
GRAND FORKS    PTCLDY    58  57  97 NW3       30.04R
GRND FRKS AFB  CLEAR     60  60 100 W6        30.05S
DEVILS LAKE    CLEAR     59  54  82 CALM      30.06S
$$

NDZ022-023-025-028>030-036>039-047>053-011200-
SOUTHEAST NORTH DAKOTA

CITY           SKY/WX    TMP DP  RH WIND       PRES   REMARKS
FARGO          CLEAR     60  57  89 W3        30.03S
JAMESTOWN      PTCLDY    60  56  86 W3        30.07R
$$




USA.gov is the U.S. government's official web portal to all federal, state and local government web resources and services.